| time (UTC) | temp F | wind direction | speed MPH | gust MPH | rain 1hr in | rain 24hr in | rain mn in | humidity % | barometer mb |
| 20260503034003 | 35 | 255 | 0.0 | 0.0 | 0.00 | 0.00 | 0.00 | 81 | 1015.6 |
| 20260503033504 | 35 | 255 | 0.0 | 3.0 | 0.00 | 0.00 | 0.00 | 81 | 1015.6 |
| 20260503033003 | 35 | 259 | 1.0 | 2.0 | 0.00 | 0.00 | 0.00 | 81 | 1015.6 |
| 20260503032503 | 35 | 259 | 1.0 | 2.0 | 0.00 | 0.00 | 0.00 | 81 | 1015.6 |
| 20260503032003 | 36 | 260 | 0.0 | 2.0 | 0.00 | 0.00 | 0.00 | 80 | 1015.7 |
| 20260503031503 | 36 | 262 | 0.0 | 1.0 | 0.00 | 0.00 | 0.00 | 80 | 1015.7 |
| 20260503031003 | 36 | 262 | 0.0 | 0.0 | 0.00 | 0.00 | 0.00 | 79 | 1015.7 |
| 20260503030003 | 36 | 262 | 0.0 | 0.0 | 0.00 | 0.00 | 0.00 | 79 | 1015.8 |
| 20260503025503 | 36 | 262 | 0.0 | 0.0 | 0.00 | 0.00 | 0.00 | 78 | 1015.8 |
| 20260503025003 | 36 | 262 | 0.0 | 0.0 | 0.00 | 0.00 | 0.00 | 78 | 1015.8 |
| 20260503024003 | 36 | 262 | 0.0 | 0.0 | 0.00 | 0.00 | 0.00 | 77 | 1015.9 |
| 20260503023503 | 36 | 262 | 0.0 | 1.0 | 0.00 | 0.00 | 0.00 | 77 | 1015.9 |
| 20260503022503 | 37 | 262 | 0.0 | 0.0 | 0.00 | 0.00 | 0.00 | 76 | 1016.0 |
| 20260503022003 | 37 | 262 | 0.0 | 0.0 | 0.00 | 0.00 | 0.00 | 75 | 1016.0 |
| 20260503021505 | 37 | 262 | 0.0 | 0.0 | 0.00 | 0.00 | 0.00 | 75 | 1016.0 |
| 20260503020503 | 37 | 264 | 0.0 | 2.0 | 0.00 | 0.00 | 0.00 | 74 | 1016.1 |
| 20260503020003 | 37 | 264 | 1.0 | 2.0 | 0.00 | 0.00 | 0.00 | 74 | 1016.1 |
| 20260503015505 | 37 | 264 | 2.0 | 3.0 | 0.00 | 0.00 | 0.00 | 74 | 1016.0 |
| 20260503015003 | 37 | 282 | 2.0 | 3.0 | 0.00 | 0.00 | 0.00 | 74 | 1016.0 |
| 20260503014503 | 37 | 271 | 0.0 | 3.0 | 0.00 | 0.00 | 0.00 | 74 | 1015.9 |
| 20260503013505 | 37 | 270 | 1.0 | 2.0 | 0.00 | 0.00 | 0.00 | 73 | 1016.0 |
| 20260503013003 | 37 | 279 | 2.0 | 3.0 | 0.00 | 0.00 | 0.00 | 73 | 1015.9 |
| 20260503012503 | 37 | 269 | 2.0 | 3.0 | 0.00 | 0.00 | 0.00 | 73 | 1016.0 |
| 20260503012004 | 37 | 283 | 1.0 | 5.0 | 0.00 | 0.00 | 0.00 | 73 | 1015.9 |
| 20260503011504 | 37 | 255 | 1.0 | 3.0 | 0.00 | 0.00 | 0.00 | 72 | 1015.9 |
| 20260503010504 | 37 | 307 | 3.0 | 5.0 | 0.00 | 0.00 | 0.00 | 72 | 1015.9 |
| 20260503005503 | 37 | 266 | 2.0 | 6.0 | 0.00 | 0.00 | 0.00 | 71 | 1015.8 |
| 20260503005003 | 37 | 281 | 2.0 | 6.0 | 0.00 | 0.00 | 0.00 | 71 | 1015.8 |
| 20260503004504 | 37 | 276 | 3.0 | 6.0 | 0.00 | 0.00 | 0.00 | 71 | 1015.8 |
| 20260503004003 | 37 | 297 | 2.0 | 5.0 | 0.00 | 0.00 | 0.00 | 71 | 1015.7 |
| 20260503003503 | 37 | 313 | 2.0 | 5.0 | 0.00 | 0.00 | 0.00 | 71 | 1015.6 |
| 20260503003004 | 37 | 290 | 3.0 | 6.0 | 0.00 | 0.00 | 0.00 | 71 | 1015.6 |
| 20260503002004 | 38 | 268 | 2.0 | 8.0 | 0.00 | 0.00 | 0.00 | 70 | 1015.6 |
| 20260503001003 | 38 | 299 | 3.0 | 7.0 | 0.00 | 0.00 | 0.00 | 69 | 1015.6 |
| 20260503000004 | 38 | 265 | 1.0 | 3.0 | 0.00 | 0.00 | 0.00 | 69 | 1015.6 |
| 20260502235503 | 38 | 304 | 2.0 | 3.0 | 0.00 | 0.00 | 0.00 | 68 | 1015.5 |
| 20260502235004 | 39 | 283 | 3.0 | 6.0 | 0.00 | 0.00 | 0.00 | 68 | 1015.5 |
| 20260502234504 | 39 | 253 | 3.0 | 6.0 | 0.00 | 0.00 | 0.00 | 67 | 1015.5 |
| 20260502233504 | 39 | 300 | 3.0 | 6.0 | 0.00 | 0.00 | 0.00 | 66 | 1015.5 |
| 20260502233003 | 39 | 313 | 3.0 | 10.0 | 0.00 | 0.00 | 0.00 | 65 | 1015.4 |
| 20260502232504 | 39 | 264 | 2.0 | 5.0 | 0.00 | 0.00 | 0.00 | 66 | 1015.4 |
| 20260502232003 | 39 | 271 | 5.0 | 10.0 | 0.00 | 0.00 | 0.00 | 65 | 1015.4 |
| 20260502231004 | 40 | 312 | 2.0 | 6.0 | 0.00 | 0.00 | 0.00 | 64 | 1015.3 |
| 20260502230504 | 40 | 305 | 3.0 | 6.0 | 0.00 | 0.00 | 0.00 | 63 | 1015.3 |
| 20260502230004 | 41 | 294 | 3.0 | 8.0 | 0.00 | 0.00 | 0.00 | 62 | 1015.4 |
| 20260502225503 | 41 | 278 | 5.0 | 9.0 | 0.00 | 0.00 | 0.00 | 60 | 1015.2 |
| 20260502225003 | 41 | 276 | 2.0 | 8.0 | 0.00 | 0.00 | 0.00 | 60 | 1015.2 |
| 20260502224503 | 41 | 303 | 5.0 | 9.0 | 0.00 | 0.00 | 0.00 | 59 | 1015.2 |
| 20260502224004 | 41 | 315 | 5.0 | 9.0 | 0.00 | 0.00 | 0.00 | 60 | 1015.2 |
| 20260502223504 | 41 | 314 | 5.0 | 8.0 | 0.00 | 0.00 | 0.00 | 60 | 1015.2 |
| 20260502222004 | 41 | 317 | 5.0 | 10.0 | 0.00 | 0.00 | 0.00 | 61 | 1015.2 |
| 20260502221504 | 41 | 268 | 5.0 | 12.0 | 0.00 | 0.00 | 0.00 | 59 | 1015.2 |
| 20260502220003 | 41 | 328 | 4.0 | 9.0 | 0.00 | 0.01 | 0.00 | 61 | 1015.2 |
| 20260502215503 | 41 | 312 | 2.0 | 9.0 | 0.00 | 0.01 | 0.00 | 59 | 1015.1 |
| 20260502215004 | 41 | 244 | 6.0 | 10.0 | 0.00 | 0.01 | 0.00 | 58 | 1015.2 |
| 20260502214504 | 41 | 252 | 3.0 | 6.0 | 0.00 | 0.02 | 0.00 | 60 | 1015.1 |
| 20260502214003 | 42 | 333 | 4.0 | 10.0 | 0.00 | 0.02 | 0.00 | 59 | 1015.0 |
| 20260502213503 | 42 | 309 | 4.0 | 9.0 | 0.00 | 0.02 | 0.00 | 61 | 1015.0 |
| 20260502213003 | 42 | 355 | 3.0 | 9.0 | 0.00 | 0.02 | 0.00 | 59 | 1014.9 |
| 20260502212504 | 42 | 341 | 2.0 | 8.0 | 0.00 | 0.03 | 0.00 | 60 | 1014.9 |
| 20260502212004 | 42 | 312 | 5.0 | 9.0 | 0.00 | 0.03 | 0.00 | 58 | 1014.9 |
| 20260502211503 | 42 | 325 | 5.0 | 8.0 | 0.00 | 0.03 | 0.00 | 58 | 1014.8 |
| 20260502210503 | 42 | 288 | 3.0 | 8.0 | 0.00 | 0.04 | 0.00 | 57 | 1014.8 |
| 20260502210003 | 42 | 333 | 3.0 | 5.0 | 0.00 | 0.04 | 0.00 | 58 | 1014.8 |
| 20260502205503 | 43 | 306 | 3.0 | 13.0 | 0.00 | 0.04 | 0.00 | 57 | 1014.8 |
| 20260502205005 | 43 | 304 | 3.0 | 8.0 | 0.00 | 0.04 | 0.00 | 58 | 1014.7 |
| 20260502204505 | 43 | 323 | 5.0 | 9.0 | 0.00 | 0.04 | 0.00 | 56 | 1014.7 |
| 20260502204004 | 43 | 337 | 5.0 | 8.0 | 0.00 | 0.04 | 0.00 | 56 | 1014.7 |
| 20260502203004 | 43 | 299 | 5.0 | 9.0 | 0.00 | 0.05 | 0.00 | 54 | 1014.7 |
| 20260502202003 | 44 | 332 | 4.0 | 8.0 | 0.00 | 0.05 | 0.00 | 51 | 1014.7 |
| 20260502201504 | 44 | 335 | 3.0 | 12.0 | 0.00 | 0.05 | 0.00 | 53 | 1014.7 |
| 20260502201003 | 44 | 314 | 5.0 | 12.0 | 0.00 | 0.06 | 0.00 | 52 | 1014.8 |
| 20260502200503 | 44 | 294 | 4.0 | 12.0 | 0.00 | 0.06 | 0.00 | 52 | 1014.8 |
| 20260502195504 | 44 | 276 | 4.0 | 8.0 | 0.00 | 0.06 | 0.00 | 52 | 1014.9 |
| 20260502195004 | 44 | 245 | 5.0 | 10.0 | 0.00 | 0.06 | 0.00 | 49 | 1014.9 |
| 20260502194504 | 44 | 224 | 2.0 | 8.0 | 0.00 | 0.07 | 0.00 | 52 | 1015.0 |
| 20260502194004 | 45 | 258 | 5.0 | 9.0 | 0.00 | 0.07 | 0.00 | 50 | 1015.0 |
| 20260502193503 | 45 | 321 | 3.0 | 7.0 | 0.00 | 0.07 | 0.00 | 50 | 1015.0 |
| 20260502193004 | 45 | 331 | 5.0 | 12.0 | 0.00 | 0.07 | 0.00 | 51 | 1015.1 |
| 20260502192504 | 45 | 323 | 3.0 | 13.0 | 0.00 | 0.07 | 0.00 | 53 | 1015.2 |
| 20260502192004 | 45 | 246 | 3.0 | 13.0 | 0.00 | 0.08 | 0.00 | 52 | 1015.3 |
| 20260502191503 | 44 | 331 | 4.0 | 9.0 | 0.00 | 0.08 | 0.00 | 52 | 1015.3 |
| 20260502191004 | 44 | 238 | 3.0 | 9.0 | 0.00 | 0.09 | 0.00 | 53 | 1015.3 |
| 20260502190504 | 44 | 324 | 5.0 | 10.0 | 0.00 | 0.09 | 0.00 | 50 | 1015.4 |
| 20260502190004 | 44 | 347 | 4.0 | 12.0 | 0.00 | 0.09 | 0.00 | 51 | 1015.4 |
| 20260502185504 | 44 | 310 | 5.0 | 10.0 | 0.00 | 0.10 | 0.00 | 52 | 1015.4 |
| 20260502185004 | 45 | 317 | 5.0 | 9.0 | 0.00 | 0.10 | 0.00 | 51 | 1015.4 |
| 20260502184503 | 45 | 321 | 4.0 | 10.0 | 0.00 | 0.11 | 0.00 | 52 | 1015.4 |
| 20260502184003 | 45 | 14 | 3.0 | 8.0 | 0.00 | 0.11 | 0.00 | 50 | 1015.4 |
| 20260502183505 | 44 | 321 | 6.0 | 12.0 | 0.00 | 0.11 | 0.00 | 51 | 1015.4 |
| 20260502183003 | 43 | 296 | 5.0 | 8.0 | 0.00 | 0.11 | 0.00 | 50 | 1015.4 |
| 20260502182504 | 43 | 328 | 3.0 | 10.0 | 0.00 | 0.11 | 0.00 | 50 | 1015.4 |
| 20260502182003 | 44 | 320 | 4.0 | 8.0 | 0.00 | 0.12 | 0.00 | 53 | 1015.5 |
| 20260502181504 | 43 | 335 | 5.0 | 12.0 | 0.00 | 0.12 | 0.00 | 53 | 1015.5 |
| 20260502181004 | 43 | 20 | 2.0 | 7.0 | 0.00 | 0.12 | 0.00 | 52 | 1015.5 |
| 20260502180504 | 44 | 4 | 5.0 | 10.0 | 0.00 | 0.13 | 0.00 | 52 | 1015.6 |
| 20260502170504 | 43 | 317 | 6.0 | 10.0 | 0.00 | 0.20 | 0.00 | 58 | 1015.7 |
| 20260502164004 | 42 | 1 | 6.0 | 12.0 | 0.00 | 0.23 | 0.00 | 56 | 1015.7 |
| 20260502163505 | 43 | 345 | 4.0 | 6.0 | 0.00 | 0.23 | 0.00 | 55 | 1015.8 |
| 20260502163004 | 43 | 337 | 4.0 | 8.0 | 0.00 | 0.23 | 0.00 | 57 | 1015.7 |
| 20260502162003 | 42 | 13 | 3.0 | 9.0 | 0.00 | 0.24 | 0.00 | 59 | 1015.8 |
| 20260502161504 | 42 | 317 | 3.0 | 8.0 | 0.00 | 0.25 | 0.00 | 59 | 1015.8 |
| 20260502161002 | 42 | 337 | 4.0 | 8.0 | 0.00 | 0.25 | 0.00 | 59 | 1015.8 |
| 20260502160502 | 42 | 335 | 4.0 | 7.0 | 0.00 | 0.25 | 0.00 | 58 | 1015.9 |
| 20260502152002 | 39 | 292 | 3.0 | 6.0 | 0.00 | 0.27 | 0.00 | 67 | 1015.9 |
| 20260502151502 | 39 | 303 | 2.0 | 7.0 | 0.00 | 0.28 | 0.00 | 68 | 1015.9 |
| 20260502150503 | 39 | 322 | 4.0 | 9.0 | 0.00 | 0.29 | 0.00 | 70 | 1015.9 |
| 20260502130503 | 36 | 286 | 1.0 | 7.0 | 0.00 | 0.37 | 0.00 | 81 | 1015.8 |
| 20260502123504 | 35 | 278 | 3.0 | 5.0 | 0.00 | 0.37 | 0.00 | 85 | 1015.9 |
| 20260502123003 | 35 | 283 | 2.0 | 3.0 | 0.00 | 0.37 | 0.00 | 85 | 1016.0 |
| 20260502122003 | 35 | 330 | 2.0 | 3.0 | 0.00 | 0.37 | 0.00 | 87 | 1015.9 |
| 20260502121003 | 34 | 282 | 1.0 | 3.0 | 0.00 | 0.37 | 0.00 | 87 | 1015.9 |
| 20260502115504 | 34 | 297 | 2.0 | 5.0 | 0.00 | 0.37 | 0.00 | 89 | 1015.9 |
| 20260502115004 | 34 | 302 | 2.0 | 3.0 | 0.00 | 0.37 | 0.00 | 89 | 1015.9 |
| 20260502114503 | 34 | 308 | 3.0 | 8.0 | 0.00 | 0.37 | 0.00 | 90 | 1016.0 |
| 20260502114003 | 34 | 297 | 2.0 | 5.0 | 0.00 | 0.37 | 0.00 | 90 | 1015.9 |
| 20260502113504 | 34 | 263 | 2.0 | 3.0 | 0.00 | 0.37 | 0.00 | 90 | 1015.8 |
| 20260502113004 | 34 | 273 | 2.0 | 3.0 | 0.00 | 0.37 | 0.00 | 91 | 1015.7 |
| 20260502112503 | 34 | 316 | 2.0 | 3.0 | 0.00 | 0.37 | 0.00 | 91 | 1015.7 |
| 20260502112003 | 34 | 318 | 3.0 | 6.0 | 0.00 | 0.37 | 0.00 | 91 | 1015.7 |
| 20260502111003 | 34 | 24 | 1.0 | 3.0 | 0.00 | 0.37 | 0.00 | 91 | 1015.6 |
| 20260502110004 | 33 | 242 | 1.0 | 3.0 | 0.00 | 0.37 | 0.00 | 91 | 1015.6 |
| 20260502105503 | 33 | 229 | 1.0 | 2.0 | 0.00 | 0.37 | 0.00 | 91 | 1015.6 |
| 20260502104505 | 33 | 226 | 1.0 | 2.0 | 0.00 | 0.37 | 0.00 | 91 | 1015.6 |
| 20260502104003 | 33 | 224 | 1.0 | 2.0 | 0.00 | 0.37 | 0.00 | 91 | 1015.6 |
| 20260502103503 | 33 | 250 | 0.0 | 1.0 | 0.00 | 0.37 | 0.00 | 92 | 1015.5 |
| 20260502103003 | 33 | 250 | 1.0 | 3.0 | 0.00 | 0.37 | 0.00 | 92 | 1015.5 |
| 20260502102505 | 33 | 268 | 1.0 | 3.0 | 0.00 | 0.37 | 0.00 | 92 | 1015.5 |
| 20260502102003 | 33 | 278 | 1.0 | 3.0 | 0.00 | 0.37 | 0.00 | 92 | 1015.5 |
| 20260502101504 | 33 | 248 | 1.0 | 2.0 | 0.00 | 0.37 | 0.00 | 92 | 1015.4 |
| 20260502101003 | 33 | 250 | 1.0 | 3.0 | 0.00 | 0.37 | 0.00 | 92 | 1015.4 |
| 20260502100503 | 33 | 257 | 1.0 | 3.0 | 0.00 | 0.37 | 0.00 | 92 | 1015.4 |
| 20260502091503 | 33 | 198 | 2.0 | 3.0 | 0.00 | 0.37 | 0.00 | 93 | 1015.1 |
| 20260502091003 | 33 | 220 | 1.0 | 3.0 | 0.00 | 0.37 | 0.00 | 93 | 1015.0 |
| 20260502090502 | 33 | 223 | 1.0 | 2.0 | 0.00 | 0.37 | 0.00 | 93 | 1015.0 |
| 20260502071503 | 33 | 221 | 1.0 | 2.0 | 0.00 | 0.37 | 0.00 | 94 | 1014.4 |
| 20260502071003 | 33 | 222 | 1.0 | 2.0 | 0.00 | 0.37 | 0.00 | 94 | 1014.5 |
| 20260502070504 | 33 | 226 | 1.0 | 3.0 | 0.00 | 0.37 | 0.00 | 94 | 1014.5 |
| 20260502065503 | 33 | 229 | 0.0 | 2.0 | 0.00 | 0.37 | 0.00 | 94 | 1014.3 |
| 20260502065003 | 34 | 230 | 1.0 | 3.0 | 0.00 | 0.37 | 0.00 | 94 | 1014.3 |
| 20260502064505 | 34 | 282 | 0.0 | 3.0 | 0.00 | 0.37 | 0.00 | 95 | 1014.4 |
| 20260502064003 | 34 | 293 | 1.0 | 2.0 | 0.00 | 0.37 | 0.00 | 95 | 1014.4 |
| 20260502063503 | 34 | 293 | 1.0 | 3.0 | 0.00 | 0.37 | 0.00 | 95 | 1014.5 |
| 20260502063003 | 34 | 290 | 2.0 | 3.0 | 0.00 | 0.37 | 0.00 | 95 | 1014.7 |
| 20260502062503 | 34 | 321 | 0.0 | 2.0 | 0.00 | 0.37 | 0.00 | 95 | 1014.3 |
| 20260502062003 | 34 | 315 | 3.0 | 5.0 | 0.00 | 0.37 | 0.00 | 96 | 1014.4 |
| 20260502061503 | 34 | 323 | 1.0 | 3.0 | 0.00 | 0.37 | 0.00 | 95 | 1014.5 |
| 20260502061003 | 33 | 257 | 1.0 | 2.0 | 0.00 | 0.37 | 0.00 | 95 | 1014.6 |
| 20260502060503 | 33 | 256 | 0.0 | 3.0 | 0.00 | 0.37 | 0.00 | 95 | 1014.9 |
| 20260502060004 | 33 | 256 | 0.0 | 1.0 | 0.00 | 0.37 | 0.00 | 95 | 1015.0 |
| 20260502055503 | 33 | 257 | 1.0 | 3.0 | 0.00 | 0.37 | 0.00 | 95 | 1015.1 |
| 20260502055003 | 33 | 259 | 1.0 | 3.0 | 0.00 | 0.37 | 0.00 | 95 | 1015.0 |
| 20260502054505 | 33 | 263 | 1.0 | 3.0 | 0.00 | 0.37 | 0.00 | 95 | 1015.1 |
| 20260502054003 | 33 | 264 | 1.0 | 3.0 | 0.00 | 0.37 | 0.00 | 95 | 1015.2 |
| 20260502053503 | 33 | 222 | 2.0 | 3.0 | 0.00 | 0.37 | 0.00 | 95 | 1015.2 |
| 20260502053003 | 33 | 257 | 1.0 | 3.0 | 0.00 | 0.37 | 0.00 | 95 | 1015.3 |
| 20260502052503 | 32 | 230 | 2.0 | 5.0 | 0.00 | 0.37 | 0.00 | 95 | 1015.3 |
| 20260502052003 | 33 | 223 | 2.0 | 3.0 | 0.00 | 0.37 | 0.00 | 95 | 1015.4 |
| 20260502051503 | 33 | 217 | 1.0 | 3.0 | 0.00 | 0.37 | 0.00 | 95 | 1015.4 |
| 20260502051004 | 33 | 217 | 1.0 | 3.0 | 0.00 | 0.37 | 0.00 | 95 | 1015.3 |
| 20260502050503 | 33 | 230 | 0.0 | 0.0 | 0.00 | 0.37 | 0.00 | 95 | 1015.3 |
| 20260502050003 | 33 | 236 | 0.0 | 0.0 | 0.00 | 0.37 | 0.00 | 95 | 1015.3 |
| 20260502045003 | 33 | 188 | 1.0 | 3.0 | 0.00 | 0.37 | 0.00 | 95 | 1015.1 |
| 20260502044004 | 33 | 189 | 1.0 | 3.0 | 0.00 | 0.37 | 0.00 | 95 | 1015.2 |
| 20260502043504 | 34 | 192 | 1.0 | 2.0 | 0.00 | 0.37 | 0.00 | 95 | 1015.2 |
| 20260502043003 | 34 | 197 | 1.0 | 3.0 | 0.00 | 0.37 | 0.00 | 95 | 1015.2 |
| 20260502042504 | 34 | 240 | 1.0 | 2.0 | 0.00 | 0.37 | 0.00 | 95 | 1015.1 |
| 20260502042003 | 34 | 242 | 1.0 | 3.0 | 0.00 | 0.37 | 0.00 | 95 | 1015.0 |
| 20260502041503 | 34 | 248 | 0.0 | 3.0 | 0.00 | 0.37 | 0.00 | 95 | 1014.9 |
| 20260502041003 | 34 | 217 | 0.0 | 2.0 | 0.00 | 0.37 | 0.00 | 95 | 1014.9 |
| 20260502040503 | 34 | 215 | 1.0 | 2.0 | 0.00 | 0.37 | 0.00 | 95 | 1014.8 |
| 20260502035503 | 34 | 244 | 1.0 | 2.0 | 0.00 | 0.37 | 0.37 | 95 | 1014.7 |
| 20260502035003 | 34 | 253 | 1.0 | 3.0 | 0.00 | 0.37 | 0.37 | 95 | 1014.6 |
| 20260502034504 | 34 | 214 | 2.0 | 3.0 | 0.00 | 0.37 | 0.37 | 95 | 1014.6 |